Year,Month,Day,Hour,Minute,Value (Times are PST for temperature in C)
2016,04,26,00,00,-0.70
2016,04,26,00,01,-0.70
2016,04,26,00,02,-0.80
2016,04,26,00,03,-0.80
2016,04,26,00,04,-0.80
2016,04,26,00,05,-0.80
2016,04,26,00,06,-0.80
2016,04,26,00,07,-0.80
2016,04,26,00,08,-0.80
2016,04,26,00,09,-0.80
2016,04,26,00,10,-0.80
2016,04,26,00,11,-0.80
2016,04,26,00,12,-0.80
2016,04,26,00,13,-0.80
2016,04,26,00,14,-0.80
2016,04,26,00,15,-0.80
2016,04,26,00,16,-0.80
2016,04,26,00,17,-0.80
2016,04,26,00,18,-0.80
2016,04,26,00,19,-0.80
2016,04,26,00,20,-0.80
2016,04,26,00,21,-0.80
2016,04,26,00,22,-0.80
2016,04,26,00,23,-0.80
2016,04,26,00,24,-0.80
2016,04,26,00,25,-0.80
2016,04,26,00,26,-0.80
2016,04,26,00,27,-0.80
2016,04,26,00,28,-0.80
2016,04,26,00,29,-0.80
2016,04,26,00,30,-0.80
2016,04,26,00,31,-0.80
2016,04,26,00,32,-0.80
2016,04,26,00,33,-0.90
2016,04,26,00,34,-0.90
2016,04,26,00,35,-0.90
2016,04,26,00,36,-0.90
2016,04,26,00,37,-0.90
2016,04,26,00,38,-0.90
2016,04,26,00,39,-0.90
2016,04,26,00,40,-0.90
2016,04,26,00,41,-0.90
2016,04,26,00,42,-1.10
2016,04,26,00,43,-1.10
2016,04,26,00,44,-1.10
2016,04,26,00,45,-1.10
2016,04,26,00,46,-1.10
2016,04,26,00,47,-1.10
2016,04,26,00,48,-1.10
2016,04,26,00,49,-1.10
2016,04,26,00,50,-1.10
2016,04,26,00,51,-1.10
2016,04,26,00,52,-1.30
2016,04,26,00,53,-1.30
2016,04,26,00,54,-1.30
2016,04,26,00,55,-1.30
2016,04,26,00,56,-1.30
2016,04,26,00,57,-1.30
2016,04,26,00,58,-1.30
2016,04,26,00,59,-1.30
2016,04,26,01,00,-1.30
2016,04,26,01,01,-1.30
2016,04,26,01,02,-1.40
2016,04,26,01,03,-1.40
2016,04,26,01,04,-1.40
2016,04,26,01,05,-1.40
2016,04,26,01,06,-1.40
2016,04,26,01,07,-1.40
2016,04,26,01,08,-1.40
2016,04,26,01,09,-1.40
2016,04,26,01,10,-1.40
2016,04,26,01,11,-1.40
2016,04,26,01,12,-1.40
2016,04,26,01,42,-1.70
2016,04,26,01,43,-1.70
2016,04,26,01,44,-1.70
2016,04,26,01,45,-1.70
2016,04,26,01,46,-1.70
2016,04,26,01,47,-1.70
2016,04,26,01,48,-1.70
2016,04,26,01,49,-1.70
2016,04,26,01,50,-1.70
2016,04,26,01,51,-1.80
2016,04,26,01,52,-1.80
2016,04,26,01,53,-1.80
2016,04,26,01,54,-1.80
2016,04,26,01,55,-1.80
2016,04,26,01,56,-1.80
2016,04,26,01,57,-1.80
2016,04,26,01,58,-1.80
2016,04,26,01,59,-1.80
2016,04,26,02,00,-1.80
2016,04,26,02,01,-1.80
2016,04,26,02,02,-1.90
2016,04,26,02,03,-1.90
2016,04,26,02,04,-1.90
2016,04,26,02,05,-1.90
2016,04,26,02,06,-1.90
2016,04,26,02,07,-1.90
2016,04,26,02,08,-1.90
2016,04,26,02,09,-1.90
2016,04,26,02,10,-1.90
2016,04,26,02,11,-1.90
2016,04,26,02,12,-1.90
2016,04,26,02,13,-1.90
2016,04,26,02,14,-1.90
2016,04,26,02,15,-1.90
2016,04,26,02,16,-1.90
2016,04,26,02,17,-1.90
2016,04,26,02,18,-1.90
2016,04,26,02,19,-1.90
2016,04,26,02,20,-1.90
2016,04,26,02,21,-2.00
2016,04,26,02,22,-2.00
2016,04,26,02,23,-2.00
2016,04,26,02,24,-2.00
2016,04,26,02,25,-2.00
2016,04,26,02,26,-2.00
2016,04,26,02,27,-2.00
2016,04,26,02,28,-2.00
2016,04,26,02,29,-2.00
2016,04,26,02,30,-2.00
2016,04,26,02,31,-2.00
2016,04,26,02,32,-1.90
2016,04,26,02,33,-1.90
2016,04,26,02,34,-1.90
2016,04,26,02,35,-1.90
2016,04,26,02,36,-1.90
2016,04,26,02,37,-1.90
2016,04,26,02,38,-1.90
2016,04,26,02,39,-1.90
2016,04,26,02,40,-1.90
2016,04,26,02,41,-2.10
2016,04,26,02,42,-2.10
2016,04,26,02,43,-2.10
2016,04,26,02,44,-2.10
2016,04,26,02,45,-2.10
2016,04,26,02,46,-2.10
2016,04,26,02,47,-2.10
2016,04,26,02,48,-2.10
2016,04,26,02,49,-2.10
2016,04,26,02,50,-2.10
2016,04,26,02,51,-2.10
2016,04,26,02,52,-2.10
2016,04,26,02,53,-2.10
2016,04,26,02,54,-2.10
2016,04,26,02,55,-2.10
2016,04,26,02,56,-2.10
2016,04,26,02,57,-2.10
2016,04,26,02,58,-2.10
2016,04,26,02,59,-2.10
2016,04,26,03,00,-2.10
2016,04,26,03,01,-2.10
2016,04,26,03,02,-1.90
2016,04,26,03,03,-1.90
2016,04,26,03,04,-1.90
2016,04,26,03,05,-1.90
2016,04,26,03,06,-1.90
2016,04,26,03,07,-1.90
2016,04,26,03,08,-1.90
2016,04,26,03,09,-1.90
2016,04,26,03,10,-1.90
2016,04,26,03,11,-1.90
2016,04,26,03,12,-1.90
2016,04,26,03,13,-1.90
2016,04,26,03,14,-1.90
2016,04,26,03,15,-1.90
2016,04,26,03,16,-1.90
2016,04,26,03,17,-1.90
2016,04,26,03,18,-1.90
2016,04,26,03,19,-1.90
2016,04,26,03,20,-1.90
2016,04,26,03,21,-2.00
2016,04,26,03,22,-2.00
2016,04,26,03,23,-2.00
2016,04,26,03,24,-2.00
2016,04,26,03,25,-2.00
2016,04,26,03,26,-2.00
2016,04,26,03,27,-2.00
2016,04,26,03,28,-2.00
2016,04,26,03,29,-2.00
2016,04,26,03,30,-2.00
2016,04,26,03,31,-2.10
2016,04,26,03,32,-2.10
2016,04,26,03,33,-2.10
2016,04,26,03,34,-2.10
2016,04,26,03,35,-2.10
2016,04,26,03,36,-2.10
2016,04,26,03,37,-2.10
2016,04,26,03,38,-2.10
2016,04,26,03,39,-2.10
2016,04,26,03,40,-2.10
2016,04,26,03,41,-2.10
2016,04,26,03,42,-1.90
2016,04,26,03,43,-1.90
2016,04,26,03,44,-1.90
2016,04,26,03,45,-1.90
2016,04,26,03,46,-1.90
2016,04,26,03,47,-1.90
2016,04,26,03,48,-1.90
2016,04,26,03,49,-1.90
2016,04,26,03,50,-1.90
2016,04,26,03,51,-1.90
2016,04,26,03,52,-2.00
2016,04,26,03,53,-2.00
2016,04,26,03,54,-2.00
2016,04,26,03,55,-2.00
2016,04,26,03,56,-2.00
2016,04,26,03,57,-2.00
2016,04,26,03,58,-2.00
2016,04,26,03,59,-2.00
2016,04,26,04,00,-2.00
2016,04,26,04,01,-2.00
2016,04,26,04,02,-2.00
2016,04,26,04,03,-2.00
2016,04,26,04,04,-2.00
2016,04,26,04,05,-2.00
2016,04,26,04,06,-2.00
2016,04,26,04,07,-2.00
2016,04,26,04,08,-2.00
2016,04,26,04,09,-2.00
2016,04,26,04,10,-2.00
2016,04,26,04,11,-2.00
2016,04,26,04,12,-2.00
2016,04,26,04,13,-2.00
2016,04,26,04,14,-2.00
2016,04,26,04,15,-2.00
2016,04,26,04,16,-2.00
2016,04,26,04,17,-2.00
2016,04,26,04,18,-2.00
2016,04,26,04,19,-2.00
2016,04,26,04,20,-2.00
2016,04,26,04,21,-2.00
2016,04,26,04,22,-1.80
2016,04,26,04,23,-1.80
2016,04,26,04,24,-1.80
2016,04,26,04,25,-1.80
2016,04,26,04,26,-1.80
2016,04,26,04,27,-1.80
2016,04,26,04,28,-1.80
2016,04,26,04,29,-1.80
2016,04,26,04,30,-1.80
2016,04,26,04,31,-2.00
2016,04,26,04,32,-2.00
2016,04,26,04,33,-2.00
2016,04,26,04,34,-2.00
2016,04,26,04,35,-2.00
2016,04,26,04,36,-2.00
2016,04,26,04,37,-2.00
2016,04,26,04,38,-2.00
2016,04,26,04,39,-2.00
2016,04,26,04,40,-2.00
2016,04,26,04,41,-2.20
2016,04,26,04,42,-2.20
2016,04,26,04,43,-2.20
2016,04,26,04,44,-2.20
2016,04,26,04,45,-2.20
2016,04,26,04,46,-2.20
2016,04,26,04,47,-2.20
2016,04,26,04,48,-2.20
2016,04,26,04,49,-2.20
2016,04,26,04,50,-2.20
2016,04,26,04,51,-2.20
2016,04,26,04,52,-2.30
2016,04,26,04,53,-2.30
2016,04,26,04,54,-2.30
2016,04,26,04,55,-2.30
2016,04,26,04,56,-2.30
2016,04,26,04,57,-2.30
2016,04,26,04,58,-2.30
2016,04,26,04,59,-2.30
2016,04,26,05,00,-2.30
2016,04,26,05,01,-2.30
2016,04,26,05,02,-2.30
2016,04,26,05,03,-2.30
2016,04,26,05,04,-2.30
2016,04,26,05,05,-2.30
2016,04,26,05,06,-2.30
2016,04,26,05,07,-2.30
2016,04,26,05,08,-2.30
2016,04,26,05,09,-2.30
2016,04,26,05,10,-2.30
2016,04,26,05,11,-1.80
2016,04,26,05,12,-1.80
2016,04,26,05,13,-1.80
2016,04,26,05,14,-1.80
2016,04,26,05,15,-1.80
2016,04,26,05,16,-1.80
2016,04,26,05,17,-1.80
2016,04,26,05,18,-1.80
2016,04,26,05,19,-1.80
2016,04,26,05,20,-1.80
2016,04,26,05,21,-1.80
2016,04,26,05,22,-1.30
2016,04,26,05,23,-1.30
2016,04,26,05,24,-1.30
2016,04,26,05,25,-1.30
2016,04,26,05,26,-1.30
2016,04,26,05,27,-1.30
2016,04,26,05,28,-1.30
2016,04,26,05,29,-1.30
2016,04,26,05,30,-1.30
2016,04,26,05,31,-1.30
2016,04,26,05,41,-1.30
2016,04,26,05,42,-1.30
2016,04,26,05,43,-1.30
2016,04,26,05,44,-1.30
2016,04,26,05,45,-1.30
2016,04,26,05,46,-1.30
2016,04,26,05,47,-1.30
2016,04,26,05,48,-1.30
2016,04,26,05,49,-1.30
2016,04,26,05,50,-1.30
2016,04,26,05,51,-1.30
2016,04,26,05,52,-1.30
2016,04,26,05,53,-1.30
2016,04,26,05,54,-1.30
2016,04,26,05,55,-1.30
2016,04,26,05,56,-1.30
2016,04,26,05,57,-1.30
2016,04,26,05,58,-1.30
2016,04,26,05,59,-1.30
2016,04,26,06,00,-1.30
2016,04,26,06,01,-1.30
2016,04,26,06,02,-1.30
2016,04,26,06,03,-1.30
2016,04,26,06,04,-1.30
2016,04,26,06,05,-1.30
2016,04,26,06,06,-1.30
2016,04,26,06,07,-1.30
2016,04,26,06,08,-1.30
2016,04,26,06,09,-1.30
2016,04,26,06,10,-1.30
2016,04,26,06,11,-1.30
2016,04,26,06,12,-1.60
2016,04,26,06,13,-1.60
2016,04,26,06,14,-1.60
2016,04,26,06,15,-1.60
2016,04,26,06,16,-1.60
2016,04,26,06,17,-1.60
2016,04,26,06,18,-1.60
2016,04,26,06,19,-1.60
2016,04,26,06,20,-1.60
2016,04,26,06,21,-1.50
2016,04,26,06,22,-1.50
2016,04,26,06,23,-1.50
2016,04,26,06,24,-1.50
2016,04,26,06,25,-1.50
2016,04,26,06,26,-1.50
2016,04,26,06,27,-1.50
2016,04,26,06,28,-1.50
2016,04,26,06,29,-1.50
2016,04,26,06,30,-1.50
2016,04,26,06,31,-1.50
2016,04,26,06,32,-1.30
2016,04,26,06,33,-1.30
2016,04,26,06,34,-1.30
2016,04,26,06,35,-1.30
2016,04,26,06,36,-1.30
2016,04,26,06,37,-1.30
2016,04,26,06,38,-1.30
2016,04,26,06,39,-1.30
2016,04,26,06,40,-1.30
2016,04,26,06,41,-1.30
2016,04,26,06,42,-1.30
2016,04,26,06,43,-1.30
2016,04,26,06,44,-1.30
2016,04,26,06,45,-1.30
2016,04,26,06,46,-1.30
2016,04,26,06,47,-1.30
2016,04,26,06,48,-1.30
2016,04,26,06,49,-1.30
2016,04,26,06,50,-1.30
2016,04,26,06,51,-1.20
2016,04,26,06,52,-1.20
2016,04,26,06,53,-1.20
2016,04,26,06,54,-1.20
2016,04,26,06,55,-1.20
2016,04,26,06,56,-1.20
2016,04,26,06,57,-1.20
2016,04,26,06,58,-1.20
2016,04,26,06,59,-1.20
2016,04,26,07,00,-1.20
2016,04,26,07,01,-1.20
2016,04,26,07,21,-0.70
2016,04,26,07,22,-0.70
2016,04,26,07,23,-0.70
2016,04,26,07,24,-0.70
2016,04,26,07,25,-0.70
2016,04,26,07,26,-0.70
2016,04,26,07,27,-0.70
2016,04,26,07,28,-0.70
2016,04,26,07,29,-0.70
2016,04,26,07,30,-0.70
2016,04,26,07,31,-0.70
2016,04,26,07,32,-0.80
2016,04,26,07,33,-0.80
2016,04,26,07,34,-0.80
2016,04,26,07,35,-0.80
2016,04,26,07,36,-0.80
2016,04,26,07,37,-0.80
2016,04,26,07,38,-0.80
2016,04,26,07,39,-0.80
2016,04,26,07,40,-0.80
2016,04,26,07,41,-0.70
2016,04,26,07,42,-0.70
2016,04,26,07,43,-0.70
2016,04,26,07,44,-0.70
2016,04,26,07,45,-0.70
2016,04,26,07,46,-0.70
2016,04,26,07,47,-0.70
2016,04,26,07,48,-0.70
2016,04,26,07,49,-0.70
2016,04,26,07,50,-0.70
2016,04,26,07,51,-0.70
2016,04,26,07,52,-0.40
2016,04,26,07,53,-0.40
2016,04,26,07,54,-0.40
2016,04,26,07,55,-0.40
2016,04,26,07,56,-0.40
2016,04,26,07,57,-0.40
2016,04,26,07,58,-0.40
2016,04,26,07,59,-0.40
2016,04,26,08,00,-0.40
2016,04,26,08,12,-0.30
2016,04,26,08,13,-0.30
2016,04,26,08,14,-0.30
2016,04,26,08,15,-0.30
2016,04,26,08,16,-0.30
2016,04,26,08,17,-0.30
2016,04,26,08,18,-0.30
2016,04,26,08,19,-0.30
2016,04,26,08,20,-0.30
2016,04,26,08,21,-0.30
2016,04,26,08,22,-0.30
2016,04,26,08,23,-0.30
2016,04,26,08,24,-0.30
2016,04,26,08,25,-0.30
2016,04,26,08,26,-0.30
2016,04,26,08,27,-0.30
2016,04,26,08,28,-0.30
2016,04,26,08,29,-0.30
2016,04,26,08,30,-0.30
2016,04,26,08,31,-0.50
2016,04,26,08,32,-0.50
2016,04,26,08,33,-0.50
2016,04,26,08,34,-0.50
2016,04,26,08,35,-0.50
2016,04,26,08,36,-0.50
2016,04,26,08,37,-0.50
2016,04,26,08,38,-0.50
2016,04,26,08,39,-0.50
2016,04,26,08,40,-0.50
2016,04,26,08,51,-0.50
2016,04,26,08,52,-0.50
2016,04,26,08,53,-0.50
2016,04,26,08,54,-0.50
2016,04,26,08,55,-0.50
2016,04,26,08,56,-0.50
2016,04,26,08,57,-0.50
2016,04,26,08,58,-0.50
2016,04,26,08,59,-0.50
2016,04,26,09,00,-0.50
2016,04,26,09,01,0.30
2016,04,26,09,02,0.30
2016,04,26,09,03,0.30
2016,04,26,09,04,0.30
2016,04,26,09,05,0.30
2016,04,26,09,06,0.30
2016,04,26,09,07,0.30
2016,04,26,09,08,0.30
2016,04,26,09,09,0.30
2016,04,26,09,10,0.30
2016,04,26,09,11,0.40
2016,04,26,09,12,0.40
2016,04,26,09,13,0.40
2016,04,26,09,14,0.40
2016,04,26,09,15,0.40
2016,04,26,09,16,0.40
2016,04,26,09,17,0.40
2016,04,26,09,18,0.40
2016,04,26,09,19,0.40
2016,04,26,09,20,0.40
2016,04,26,09,32,0.20
2016,04,26,09,33,0.20
2016,04,26,09,34,0.20
2016,04,26,09,35,0.20
2016,04,26,09,36,0.20
2016,04,26,09,37,0.20
2016,04,26,09,38,0.20
2016,04,26,09,39,0.20
2016,04,26,09,40,0.20
2016,04,26,09,41,-0.20
2016,04,26,09,42,-0.20
2016,04,26,09,43,-0.20
2016,04,26,09,44,-0.20
2016,04,26,09,45,-0.20
2016,04,26,09,46,-0.20
2016,04,26,09,47,-0.20
2016,04,26,09,48,-0.20
2016,04,26,09,49,-0.20
2016,04,26,09,50,-0.20
2016,04,26,09,51,-0.20
2016,04,26,09,52,0.10
2016,04,26,09,53,0.10
2016,04,26,09,54,0.10
2016,04,26,09,55,0.10
2016,04,26,09,56,0.10
2016,04,26,09,57,0.10
2016,04,26,09,58,0.10
2016,04,26,09,59,0.10
2016,04,26,10,00,0.10
2016,04,26,10,01,0.10
2016,04,26,10,02,0.50
2016,04,26,10,03,0.50
2016,04,26,10,04,0.50
2016,04,26,10,05,0.50
2016,04,26,10,06,0.50
2016,04,26,10,07,0.50
2016,04,26,10,08,0.50
2016,04,26,10,09,0.50
2016,04,26,10,10,0.50
2016,04,26,10,11,0.50
2016,04,26,10,12,0.50
2016,04,26,10,13,0.50
2016,04,26,10,14,0.50
2016,04,26,10,15,0.50
2016,04,26,10,16,0.50
2016,04,26,10,17,0.50
2016,04,26,10,18,0.50
2016,04,26,10,19,0.50
2016,04,26,10,20,0.50
2016,04,26,10,21,0.70
2016,04,26,10,22,0.70
2016,04,26,10,23,0.70
2016,04,26,10,24,0.70
2016,04,26,10,25,0.70
2016,04,26,10,26,0.70
2016,04,26,10,27,0.70
2016,04,26,10,28,0.70
2016,04,26,10,29,0.70
2016,04,26,10,30,0.70
2016,04,26,10,31,0.90
2016,04,26,10,32,0.90
2016,04,26,10,33,0.90
2016,04,26,10,34,0.90
2016,04,26,10,35,0.90
2016,04,26,10,36,0.90
2016,04,26,10,37,0.90
2016,04,26,10,38,0.90
2016,04,26,10,39,0.90
2016,04,26,10,40,0.90
2016,04,26,10,41,0.90
2016,04,26,10,42,1.10
2016,04,26,10,43,1.10
2016,04,26,10,44,1.10
2016,04,26,10,45,1.10
2016,04,26,10,46,1.10
2016,04,26,10,47,1.10
2016,04,26,10,48,1.10
2016,04,26,10,49,1.10
2016,04,26,10,50,1.10
2016,04,26,10,51,1.00
2016,04,26,10,52,1.00
2016,04,26,10,53,1.00
2016,04,26,10,54,1.00
2016,04,26,10,55,1.00
2016,04,26,10,56,1.00
2016,04,26,10,57,1.00
2016,04,26,10,58,1.00
2016,04,26,10,59,1.00
2016,04,26,11,00,1.00
2016,04,26,11,01,1.00
2016,04,26,11,02,1.00
2016,04,26,11,03,1.00
2016,04,26,11,04,1.00
2016,04,26,11,05,1.00
2016,04,26,11,06,1.00
2016,04,26,11,07,1.00
2016,04,26,11,08,1.00
2016,04,26,11,09,1.00
2016,04,26,11,10,1.00
2016,04,26,11,11,1.00
2016,04,26,11,12,1.00
2016,04,26,11,13,1.00
2016,04,26,11,14,1.00
2016,04,26,11,15,1.00
2016,04,26,11,16,1.00
2016,04,26,11,17,1.00
2016,04,26,11,18,1.00
2016,04,26,11,19,1.00
2016,04,26,11,20,1.00
2016,04,26,11,21,1.10
2016,04,26,11,22,1.10
2016,04,26,11,23,1.10
2016,04,26,11,24,1.10
2016,04,26,11,25,1.10
2016,04,26,11,26,1.10
2016,04,26,11,27,1.10
2016,04,26,11,28,1.10
2016,04,26,11,29,1.10
2016,04,26,11,30,1.10
2016,04,26,11,31,1.10
2016,04,26,11,32,1.10
2016,04,26,11,33,1.10
2016,04,26,11,34,1.10
2016,04,26,11,35,1.10
2016,04,26,11,36,1.10
2016,04,26,11,37,1.10
2016,04,26,11,38,1.10
2016,04,26,11,39,1.10
2016,04,26,11,40,1.10
2016,04,26,11,41,0.80
2016,04,26,11,42,0.80
2016,04,26,11,43,0.80
2016,04,26,11,44,0.80
2016,04,26,11,45,0.80
2016,04,26,11,46,0.80
2016,04,26,11,47,0.80
2016,04,26,11,48,0.80
2016,04,26,11,49,0.80
2016,04,26,11,50,0.80
2016,04,26,12,02,0.90
2016,04,26,12,03,0.90
2016,04,26,12,04,0.90
2016,04,26,12,05,0.90
2016,04,26,12,06,0.90
2016,04,26,12,07,0.90
2016,04,26,12,08,0.90
2016,04,26,12,09,0.90
2016,04,26,12,10,0.90
2016,04,26,12,11,0.90
2016,04,26,12,12,1.10
2016,04,26,12,13,1.10
2016,04,26,12,14,1.10
2016,04,26,12,15,1.10
2016,04,26,12,16,1.10
2016,04,26,12,17,1.10
2016,04,26,12,18,1.10
2016,04,26,12,19,1.10
2016,04,26,12,20,1.10
2016,04,26,12,21,1.40
2016,04,26,12,22,1.40
2016,04,26,12,23,1.40
2016,04,26,12,24,1.40
2016,04,26,12,25,1.40
2016,04,26,12,26,1.40
2016,04,26,12,27,1.40
2016,04,26,12,28,1.40
2016,04,26,12,29,1.40
2016,04,26,12,30,1.40
2016,04,26,12,31,1.40
2016,04,26,12,32,1.40
2016,04,26,12,33,1.40
2016,04,26,12,34,1.40
2016,04,26,12,35,1.40
2016,04,26,12,36,1.40
2016,04,26,12,37,1.40
2016,04,26,12,38,1.40
2016,04,26,12,39,1.40
2016,04,26,12,40,1.40
2016,04,26,12,41,1.40
2016,04,26,12,42,1.60
2016,04,26,12,43,1.60
2016,04,26,12,44,1.60
2016,04,26,12,45,1.60
2016,04,26,12,46,1.60
2016,04,26,12,47,1.60
2016,04,26,12,48,1.60
2016,04,26,12,49,1.60
2016,04,26,12,50,1.60
2016,04,26,12,51,1.50
2016,04,26,12,52,1.50
2016,04,26,12,53,1.50
2016,04,26,12,54,1.50
2016,04,26,12,55,1.50
2016,04,26,12,56,1.50
2016,04,26,12,57,1.50
2016,04,26,12,58,1.50
2016,04,26,12,59,1.50
2016,04,26,13,00,1.50
2016,04,26,13,12,1.20
2016,04,26,13,13,1.20
2016,04,26,13,14,1.20
2016,04,26,13,15,1.20
2016,04,26,13,16,1.20
2016,04,26,13,17,1.20
2016,04,26,13,18,1.20
2016,04,26,13,19,1.20
2016,04,26,13,20,1.20
2016,04,26,13,21,1.20
2016,04,26,13,22,1.20
2016,04,26,13,23,1.20
2016,04,26,13,24,1.20
2016,04,26,13,25,1.20
2016,04,26,13,26,1.20
2016,04,26,13,27,1.20
2016,04,26,13,28,1.20
2016,04,26,13,29,1.20
2016,04,26,13,30,1.20
2016,04,26,13,31,1.20
2016,04,26,13,32,1.20
2016,04,26,13,33,1.20
2016,04,26,13,34,1.20
2016,04,26,13,35,1.20
2016,04,26,13,36,1.20
2016,04,26,13,37,1.20
2016,04,26,13,38,1.20
2016,04,26,13,39,1.20
2016,04,26,13,40,1.20
2016,04,26,13,51,0.90
2016,04,26,13,52,0.90
2016,04,26,13,53,0.90
2016,04,26,13,54,0.90
2016,04,26,13,55,0.90
2016,04,26,13,56,0.90
2016,04,26,13,57,0.90
2016,04,26,13,58,0.90
2016,04,26,13,59,0.90
2016,04,26,14,00,0.90
2016,04,26,14,01,0.90
2016,04,26,14,02,0.90
2016,04,26,14,03,0.90
2016,04,26,14,04,0.90
2016,04,26,14,05,0.90
2016,04,26,14,06,0.90
2016,04,26,14,07,0.90
2016,04,26,14,08,0.90
2016,04,26,14,09,0.90
2016,04,26,14,10,0.90
2016,04,26,14,21,1.00
2016,04,26,14,22,1.00
2016,04,26,14,23,1.00
2016,04,26,14,24,1.00
2016,04,26,14,25,1.00
2016,04,26,14,26,1.00
2016,04,26,14,27,1.00
2016,04,26,14,28,1.00
2016,04,26,14,29,1.00
2016,04,26,14,30,1.00
2016,04,26,14,31,0.80
2016,04,26,14,32,0.80
2016,04,26,14,33,0.80
2016,04,26,14,34,0.80
2016,04,26,14,35,0.80
2016,04,26,14,36,0.80
2016,04,26,14,37,0.80
2016,04,26,14,38,0.80
2016,04,26,14,39,0.80
2016,04,26,14,40,0.80
2016,04,26,14,41,0.80
2016,04,26,14,52,0.90
2016,04,26,14,53,0.90
2016,04,26,14,54,0.90
2016,04,26,14,55,0.90
2016,04,26,14,56,0.90
2016,04,26,14,57,0.90
2016,04,26,14,58,0.90
2016,04,26,14,59,0.90
2016,04,26,15,00,0.90
2016,04,26,15,01,0.90
2016,04,26,15,02,0.90
2016,04,26,15,03,0.80
2016,04,26,15,04,0.80
2016,04,26,15,05,0.80
2016,04,26,15,06,0.80
2016,04,26,15,07,0.80
2016,04,26,15,08,0.80
2016,04,26,15,09,0.80
2016,04,26,15,10,0.80
2016,04,26,15,22,-0.10
2016,04,26,15,23,-0.10
2016,04,26,15,24,-0.10
2016,04,26,15,25,-0.10
2016,04,26,15,26,-0.10
2016,04,26,15,27,-0.10
2016,04,26,15,28,-0.10
2016,04,26,15,29,-0.10
2016,04,26,15,30,-0.10
2016,04,26,15,31,-0.40
2016,04,26,15,32,-0.40
2016,04,26,15,33,-0.40
2016,04,26,15,34,-0.40
2016,04,26,15,35,-0.40
2016,04,26,15,36,-0.40
2016,04,26,15,37,-0.40
2016,04,26,15,38,-0.40
2016,04,26,15,39,-0.40
2016,04,26,15,40,-0.40
2016,04,26,15,52,-0.60
2016,04,26,15,53,-0.60
2016,04,26,15,54,-0.60
2016,04,26,15,55,-0.60
2016,04,26,15,56,-0.60
2016,04,26,15,57,-0.60
2016,04,26,15,58,-0.60
2016,04,26,15,59,-0.60
2016,04,26,16,00,-0.60
2016,04,26,16,01,-0.60
2016,04,26,16,02,-0.60
2016,04,26,16,03,-0.60
2016,04,26,16,04,-0.60
2016,04,26,16,05,-0.60
2016,04,26,16,06,-0.60
2016,04,26,16,07,-0.60
2016,04,26,16,08,-0.60
2016,04,26,16,09,-0.60
2016,04,26,16,10,-0.60
2016,04,26,16,11,-0.50
2016,04,26,16,12,-0.50
2016,04,26,16,13,-0.50
2016,04,26,16,14,-0.50
2016,04,26,16,15,-0.50
2016,04,26,16,16,-0.50
2016,04,26,16,17,-0.50
2016,04,26,16,18,-0.50
2016,04,26,16,19,-0.50
2016,04,26,16,20,-0.50
2016,04,26,16,21,-0.50
2016,04,26,16,22,-0.50
2016,04,26,16,23,-0.50
2016,04,26,16,24,-0.50
2016,04,26,16,25,-0.50
2016,04,26,16,26,-0.50
2016,04,26,16,27,-0.50
2016,04,26,16,28,-0.50
2016,04,26,16,29,-0.50
2016,04,26,16,30,-0.50
2016,04,26,16,31,-0.80
2016,04,26,16,32,-0.80
2016,04,26,16,33,-0.80
2016,04,26,16,34,-0.80
2016,04,26,16,35,-0.80
2016,04,26,16,36,-0.80
2016,04,26,16,37,-0.80
2016,04,26,16,38,-0.80
2016,04,26,16,39,-0.80
2016,04,26,16,40,-0.80
2016,04,26,16,41,-0.80
2016,04,26,16,42,-0.80
2016,04,26,16,43,-0.80
2016,04,26,16,44,-0.80
2016,04,26,16,45,-0.80
2016,04,26,16,46,-0.80
2016,04,26,16,47,-0.80
2016,04,26,16,48,-0.80
2016,04,26,16,49,-0.80
2016,04,26,16,50,-0.80
2016,04,26,16,51,-0.80
2016,04,26,16,52,-0.80
2016,04,26,16,53,-0.80
2016,04,26,16,54,-0.80
2016,04,26,16,55,-0.80
2016,04,26,16,56,-0.80
2016,04,26,16,57,-0.80
2016,04,26,16,58,-0.80
2016,04,26,16,59,-0.80
2016,04,26,17,00,-0.80
2016,04,26,17,01,-0.70
2016,04,26,17,02,-0.70
2016,04,26,17,03,-0.70
2016,04,26,17,04,-0.70
2016,04,26,17,05,-0.70
2016,04,26,17,06,-0.70
2016,04,26,17,07,-0.70
2016,04,26,17,08,-0.70
2016,04,26,17,09,-0.70
2016,04,26,17,10,-0.70
2016,04,26,17,11,-0.80
2016,04,26,17,12,-0.80
2016,04,26,17,13,-0.80
2016,04,26,17,14,-0.80
2016,04,26,17,15,-0.80
2016,04,26,17,16,-0.80
2016,04,26,17,17,-0.80
2016,04,26,17,18,-0.80
2016,04,26,17,19,-0.80
2016,04,26,17,20,-0.80
2016,04,26,17,21,-0.90
2016,04,26,17,22,-0.90
2016,04,26,17,23,-0.90
2016,04,26,17,24,-0.90
2016,04,26,17,25,-0.90
2016,04,26,17,26,-0.90
2016,04,26,17,27,-0.90
2016,04,26,17,28,-0.90
2016,04,26,17,29,-0.90
2016,04,26,17,30,-0.90
2016,04,26,17,31,-0.90
2016,04,26,17,32,-1.10
2016,04,26,17,33,-1.10
2016,04,26,17,34,-1.10
2016,04,26,17,35,-1.10
2016,04,26,17,36,-1.10
2016,04,26,17,37,-1.10
2016,04,26,17,38,-1.10
2016,04,26,17,39,-1.10
2016,04,26,17,40,-1.10
2016,04,26,17,52,-1.20
2016,04,26,17,53,-1.20
2016,04,26,17,54,-1.20
2016,04,26,17,55,-1.20
2016,04,26,17,56,-1.20
2016,04,26,17,57,-1.20
2016,04,26,17,58,-1.20
2016,04,26,17,59,-1.20
2016,04,26,18,00,-1.20
2016,04,26,18,01,-1.20
2016,04,26,18,02,-1.20
2016,04,26,18,03,-1.20
2016,04,26,18,04,-1.20
2016,04,26,18,05,-1.20
2016,04,26,18,06,-1.20
2016,04,26,18,07,-1.20
2016,04,26,18,08,-1.20
2016,04,26,18,09,-1.20
2016,04,26,18,10,-1.20
2016,04,26,18,11,-1.20
2016,04,26,18,12,-1.20
2016,04,26,18,13,-1.20
2016,04,26,18,14,-1.20
2016,04,26,18,15,-1.20
2016,04,26,18,16,-1.20
2016,04,26,18,17,-1.20
2016,04,26,18,18,-1.20
2016,04,26,18,19,-1.20
2016,04,26,18,20,-1.20
2016,04,26,18,21,-1.30
2016,04,26,18,22,-1.30
2016,04,26,18,23,-1.30
2016,04,26,18,24,-1.30
2016,04,26,18,25,-1.30
2016,04,26,18,26,-1.30
2016,04,26,18,27,-1.30
2016,04,26,18,28,-1.30
2016,04,26,18,29,-1.30
2016,04,26,18,30,-1.30
2016,04,26,18,31,-1.40
2016,04,26,18,32,-1.40
2016,04,26,18,33,-1.40
2016,04,26,18,34,-1.40
2016,04,26,18,35,-1.40
2016,04,26,18,36,-1.40
2016,04,26,18,37,-1.40
2016,04,26,18,38,-1.40
2016,04,26,18,39,-1.40
2016,04,26,18,40,-1.40
2016,04,26,18,41,-1.60
2016,04,26,18,42,-1.60
2016,04,26,18,43,-1.60
2016,04,26,18,44,-1.60
2016,04,26,18,45,-1.60
2016,04,26,18,46,-1.60
2016,04,26,18,47,-1.60
2016,04,26,18,48,-1.60
2016,04,26,18,49,-1.60
2016,04,26,18,50,-1.60
2016,04,26,18,51,-1.60
2016,04,26,18,52,-1.60
2016,04,26,18,53,-1.60
2016,04,26,18,54,-1.60
2016,04,26,18,55,-1.60
2016,04,26,18,56,-1.60
2016,04,26,18,57,-1.60
2016,04,26,18,58,-1.60
2016,04,26,18,59,-1.60
2016,04,26,19,00,-1.60
2016,04,26,19,01,-1.60
2016,04,26,19,02,-1.60
2016,04,26,19,03,-1.60
2016,04,26,19,04,-1.60
2016,04,26,19,05,-1.60
2016,04,26,19,06,-1.60
2016,04,26,19,07,-1.60
2016,04,26,19,08,-1.60
2016,04,26,19,09,-1.60
2016,04,26,19,10,-1.60
2016,04,26,19,11,-1.60
2016,04,26,19,22,-1.60
2016,04,26,19,23,-1.60
2016,04,26,19,24,-1.60
2016,04,26,19,25,-1.60
2016,04,26,19,26,-1.60
2016,04,26,19,27,-1.60
2016,04,26,19,28,-1.60
2016,04,26,19,29,-1.60
2016,04,26,19,30,-1.60
2016,04,26,19,31,-1.70
2016,04,26,19,32,-1.70
2016,04,26,19,33,-1.70
2016,04,26,19,34,-1.70
2016,04,26,19,35,-1.70
2016,04,26,19,36,-1.70
2016,04,26,19,37,-1.70
2016,04,26,19,38,-1.70
2016,04,26,19,39,-1.70
2016,04,26,19,40,-1.70
2016,04,26,19,41,-1.80
2016,04,26,19,42,-1.80
2016,04,26,19,43,-1.80
2016,04,26,19,44,-1.80
2016,04,26,19,45,-1.80
2016,04,26,19,46,-1.80
2016,04,26,19,47,-1.80
2016,04,26,19,48,-1.80
2016,04,26,19,49,-1.80
2016,04,26,19,50,-1.80
2016,04,26,19,51,-1.90
2016,04,26,19,52,-1.90
2016,04,26,19,53,-1.90
2016,04,26,19,54,-1.90
2016,04,26,19,55,-1.90
2016,04,26,19,56,-1.90
2016,04,26,19,57,-1.90
2016,04,26,19,58,-1.90
2016,04,26,19,59,-1.90
2016,04,26,20,00,-1.90
2016,04,26,20,01,-1.90
2016,04,26,20,02,-1.90
2016,04,26,20,03,-1.90
2016,04,26,20,04,-1.90
2016,04,26,20,05,-1.90
2016,04,26,20,06,-1.90
2016,04,26,20,07,-1.90
2016,04,26,20,08,-1.90
2016,04,26,20,09,-1.90
2016,04,26,20,10,-1.90
2016,04,26,20,11,-1.90
2016,04,26,20,12,-2.00
2016,04,26,20,13,-2.00
2016,04,26,20,14,-2.00
2016,04,26,20,15,-2.00
2016,04,26,20,16,-2.00
2016,04,26,20,17,-2.00
2016,04,26,20,18,-2.00
2016,04,26,20,19,-2.00
2016,04,26,20,20,-2.00
2016,04,26,20,21,-2.00
2016,04,26,20,31,-2.00
2016,04,26,20,32,-2.00
2016,04,26,20,33,-2.00
2016,04,26,20,34,-2.00
2016,04,26,20,35,-2.00
2016,04,26,20,36,-2.00
2016,04,26,20,37,-2.00
2016,04,26,20,38,-2.00
2016,04,26,20,39,-2.00
2016,04,26,20,40,-2.00
2016,04,26,20,41,-2.00
2016,04,26,20,42,-2.00
2016,04,26,20,43,-2.00
2016,04,26,20,44,-2.00
2016,04,26,20,45,-2.00